Other Public Products
Issued by NWS Grand Forks, ND

Home | Current Version | Previous Version | Text Only | Print | Product List | Glossary Off
Versions: 1 2 3 4 5 6 7 8 9 10 11 12 13 14 15 16 17 18 19 20 21 22 23 24 25 26 27 28 29 30 31 32 33 34 35 36 37 38 39 40 41 42 43 44 45 46 47 48 49 50

008
FPUS83 KFGF 291510
OPUFGF
PRAIRIE TO PINES WEATHER ROUNDUP
NATIONAL WEATHER SERVICE EASTERN NORTH DAKOTA/GRAND FORKS ND
1000 AM CDT WED MAR 29 2017

 **SATELLITE DATA USED TO AUGMENT SKY COVER AT AUTOMATED STATIONS**
 *****  WEATHER ACROSS EASTERN NORTH DAKOTA  *****

CITY           SKY/WX    TMP DP  RH WIND       PRES   REMARKS
GRAND FORKS    FAIR      42  35  76 S7        30.16S
GRAND FORKS AF FAIR      42  37  84 S5        30.15F
GRAND CITY NWS NOT AVBL
BUXTON         NOT AVBL
DEVILS LAKE    FAIR      48  38  68 S12       30.12F
FARGO          FAIR      46  35  65 SE8       30.17F
WAHPETON ARPT    N/A     43  34  70 SE6       30.18S
$$

 *****  WEATHER ACROSS CENTRAL AND WESTERN NORTH DAKOTA  *****

CITY           SKY/WX    TMP DP  RH WIND       PRES   REMARKS
JAMESTOWN      FAIR      43  38  82 SW3       30.14F
BISMARCK       FAIR      48  41  76 S3        30.12F
MINOT          CLOUDY    46  41  82 S7        30.05F
MINOT AFB      CLOUDY    43  41  93 S6        30.04F
GARRISON         N/A     42  39  89 S8        30.08F
WILLISTON      FAIR      38  38 100 S3        30.04F
DICKINSON      CLOUDY    41  41 100 SW14      30.06S
HETTINGER      PTSUNNY   43  41  93 SW12      30.10F
$$

 *****  OTHER OBSERVATIONS NORTHEAST NORTH DAKOTA  *****

CITY           SKY/WX    TMP DP  RH WIND       PRES   REMARKS
WALHALLA       NOT AVBL
LANGDON        FAIR      39  37  93 S13       30.11F
CAVALIER       FAIR      37  34  87 S7        30.14F
GRAFTON        FAIR      39  36  87 SE6       30.17F
CANDO          NOT AVBL
FORT TOTTEN      N/A     46  46  98 S7        29.95S
ROLLA          PTSUNNY   37  39 100 SW14      30.08F
RUGBY          NOT AVBL
 ***** THE ABOVE OBSERVATIONS ARE NON NWS ARE NOT QUALITY
        CONTROLLED AND MAY MIS-REPORT RAIN FOR SNOW...
$$

 *****  OTHER OBSERVATIONS SOUTHEAST NORTH DAKOTA *****

CITY           SKY/WX    TMP DP  RH WIND       PRES   REMARKS
COOPERSTOWN    FAIR      39  39 100 W3        30.15F
VALLEY CITY    FAIR      41  41 100 CALM      30.17S
OAKES          NOT AVBL
GWINNER        SUNNY     45  41  87 MISG      30.16F
SHEYENNE NWR     N/A     42  40  94 E2        29.95S
BUFFALO        NOT AVBL
WYNDMERE       NOT AVBL
 ***** THE ABOVE OBSERVATIONS ARE NON NWS ARE NOT QUALITY
       CONTROLLED AND MAY MIS-REPORT RAIN FOR SNOW...
$$

  *****  WEATHER ACROSS NORTHERN MINNESOTA  *****

CITY           SKY/WX    TMP DP  RH WIND       PRES   REMARKS
FLAG ISLAND    FAIR      36  27  69 SE8       30.21S
WARROAD        FAIR      39  32  75 E5        30.20S
ROSEAU         FAIR      43  34  70 SE6       30.18F
HALLOCK        FAIR      39  34  81 SE5       30.15F
THF RVR FALLS  FAIR      40  32  73 SE8       30.18F
HALSTAD          N/A     42  36  78 S5          N/A
FOSSTON        FAIR      41  30  65 SE9       30.18F
BAUDETTE       FAIR      38  27  64 SE8       30.21F
WASKISH        CLOUDY    41  30  65 SE7       30.22S
CROOKSTON      FAIR      41  36  81 S3        30.18S
$$
  *****  WEATHER ACROSS CENTRAL AND WEST MINNESOTA  *****

CITY           SKY/WX    TMP DP  RH WIND       PRES   REMARKS
BEMIDJI        FAIR      38  29  70 SE10      30.22S
PARK RAPIDS    FAIR      40  27  59 SE5       30.21S
WADENA         FAIR      37  28  70 SE9       30.20F
DETROIT LAKES  FAIR      41  30  65 SE10      30.20S
MOORHEAD       FAIR      41  36  81 CALM      30.19S
FERGUS FALLS   FAIR      46  30  53 SE9       30.21F
ELBOW LAKE     FAIR      45  33  64 SE9       30.19S
MORRIS MN      FAIR      46  34  61 E10       30.18S
STAPLES        FAIR      37  28  70 SE5       30.22S
WHEATON        FAIR      43  37  81 E5        30.20S
$$
  *****  WEATHER ELSEWHERE ACROSS MINNESOTA  *****

CITY           SKY/WX    TMP DP  RH WIND       PRES   REMARKS
DULUTH         FAIR      35  29  78 E15G24    30.30R
INTRNTL FALLS  FAIR      37  26  64 SE9       30.26F
ELY            FAIR      36  25  64 SE7       30.29F
CLOQUET        FAIR      36  28  75 E13       30.29S
BRAINERD       FAIR      38  30  73 E6        30.24S
HIBBING        FAIR      34  28  79 E8        30.27F
ALEXANDRIA     FAIR      41  30  65 E10       30.21S
SAINT CLOUD    FAIR      40  32  73 E5        30.24S
MINNEAPOLIS    CLOUDY    49  33  54 SE8       30.24S
$$

  *****  WEATHER ACROSS SOUTH DAKOTA  *****

CITY           SKY/WX    TMP DP  RH WIND       PRES   REMARKS
SIOUX FALLS    LGT RAIN  47  42  83 E9        30.15S
BROOKINGS      FAIR      49  39  68 E7        30.15R
WATERTOWN      FAIR      48  38  68 SE5       30.16R
HURON          FAIR      48  39  71 E6        30.14F
SISSETON         N/A     46  41  82 S5        30.16F
ABERDEEN       FAIR      43  36  76 N3        30.16F
MITCHELL       FAIR      49  41  74 E9        30.14S
PIERRE         FAIR      49  44  83 N6        30.13F
MOBRIDGE       CLOUDY    46  41  82 CALM      30.10F
RAPID CITY     CLOUDY    43  41  93 CALM      30.10F
$$

  *****  SOME WEATHER IN NEARBY STATES *****

CITY           SKY/WX    TMP DP  RH WIND       PRES   REMARKS
GLASGOW MT     FAIR      43  29  57 SW5       30.01F
GREAT FALLS MT PTSUNNY   42  27  55 SW14      30.02F
CHEYENNE WY    PTSUNNY   37  32  82 N15       30.11S
SCOTTSBLUFF NE CLOUDY    43  39  86 NW9       30.11S
OMAHA NE       LGT RAIN  45  40  82 NE18      30.01S
DES MOINES IA  LGT RAIN  42  40  92 E12G20    30.07R FOG
DAVENPORT IA   CLOUDY    42  39  89 E14       30.19F
CHICAGO IL     CLOUDY    44  35  70 NE12      30.24R
EAU CLAIRE WI  FAIR      43  29  57 E7        30.27R
LA CROSSE WI   FAIR      44  34  67 E7        30.26S
$$

  *****  SOME NATIONAL WEATHER *****

CITY           SKY/WX    TMP DP  RH WIND       PRES   REMARKS
LA GUARDIA NY  PTSUNNY   49  36  61 NW9       30.08R
RALEIGH NC     PTSUNNY   67  52  58 NE13      30.10R
ATLANTA GA     PTSUNNY   70  53  54 SE8       30.07R
NEW ORLEANS LA PTSUNNY   76  67  73 S12G18    30.00R
OKLAHOMA CITY  CLOUDY    53  52  96 W8        29.66R FOG
ALBUQUERQUE NM CLOUDY    46  38  73 N15       29.99R
SALT LAKE CITY PTSUNNY   40  31  70 SE8       30.25S
LOS ANGELES CA FAIR      59  54  83 CALM      30.04R
BOISE ID       CLOUDY    44  32  62 SE13      30.18R
SEATTLE WA     LGT RAIN  46  45  96 SE10      29.86F VSB 1
$$

*** WEATHER ACROSS MANITOBA...SASKATCHEWAN AND ONTARIO ***
                ***ONTARIO***

CITY           SKY/WX    TMP DP  RH WIND       PRES   REMARKS
GERALDTON      MOSUNNY   28  18  64 NE3       30.44R
THUNDER BAY    CLOUDY    34  27  75 E10       30.43R
SIOUX LOOKOUT  CLOUDY    32  19  59 S7        30.31F
TORONTO        PTSUNNY   43  30  61 NW3       30.28R
BIG TROUT LK   SUNNY     23  14  68 S6        30.42F WCI  16
PICKLE LAKE    PTSUNNY   28  18  64 S13       30.38F WCI  18
DRYDEN         MOSUNNY   34  23  64 SE13      30.27F WCI  25
KENORA         MOSUNNY   39  27  60 S9        30.22F
$$
                *** MANITOBA***

CITY           SKY/WX    TMP DP  RH WIND       PRES   REMARKS
BRANDON        PTSUNNY   34  32  93 E6        30.07S
DAUPHIN        CLOUDY    34  30  86 SE3       30.05F
ISLAND LAKE    NOT AVBL
PILOT MOUND      N/A     37  36  93 S12         N/A
THE PAS        CLOUDY    32  27  80 SE9       30.05S WCI  24
THOMPSON       CLOUDY    21  12  68 SE3       30.18F
WINNIPEG       PTSUNNY   41  32  70 S14       30.13F
LYNN LAKE      CLOUDY    23  16  74 SE5       30.07F WCI  17
CHURCHILL      PTSUNNY   10   5  79 S8        30.32F WCI  -1
GILLAM         PTSUNNY   28  14  54 S7        30.27F WCI  21
$$
                ***SASKATCHEWAN***

CITY           SKY/WX    TMP DP  RH WIND       PRES   REMARKS
ESTEVAN        CLOUDY    39  39 100 S6        30.00F
KINDERSLEY     MOSUNNY   39  30  70 CALM      29.84S
LLOYDMINSTER   CLOUDY    36  36 100 E3        29.86S FOG
PRINCE ALBERT  LGT RAIN  34  34 100 E9        29.88F FOG
REGINA         PTSUNNY   41  36  81 S8        29.91F
YORKTON        CLOUDY    34  34 100 SE9       29.95F F



USA.gov is the U.S. government's official web portal to all federal, state and local government web resources and services.